FW7782 Weather Reports


time (UTC)temp
C
wind
direction
speed
KPH
gust
KPH
rain 1hr
cm
rain 24hr
cm
rain mn
cm
humidity
%
barometer
mb
20260507141551 18 86 9.7 16.1 0.00 0.00 0.00 84 1010.3
20260507134550 18 108 8.0 14.5 0.00 0.00 0.00 80 1010.6
20260507133057 18 89 4.8 19.3 0.00 0.00 0.00 81 1010.6
20260507131554 18 127 6.4 20.9 0.00 0.00 0.00 82 1010.6
20260507130105 18 103 8.0 17.7 0.00 0.00 0.00 80 1010.8
20260507124600 18 115 12.9 24.1 0.00 0.00 0.00 77 1011.2
20260507123053 19 81 11.3 19.3 0.00 0.00 0.00 72 1011.2
20260507121554 19 75 9.7 22.5 0.00 0.00 0.00 74 1011.1
20260507120047 19 94 9.7 24.1 0.00 0.00 0.00 73 1011.1
20260507114551 19 84 16.1 25.7 0.00 0.00 0.00 74 1011.1
20260507113059 18 54 14.5 27.4 0.00 0.00 0.00 74 1011.2
20260507111548 19 88 12.9 24.1 0.00 0.00 0.00 72 1011.5
20260507110057 19 25 17.7 25.7 0.00 0.00 0.00 73 1011.5
20260507104555 19 71 11.3 24.1 0.00 0.00 0.00 75 1011.7
20260507103115 18 66 14.5 25.7 0.00 0.00 0.00 76 1011.6
20260507101553 18 53 16.1 25.7 0.00 0.00 0.00 75 1011.8
20260507100106 18 121 12.9 25.7 0.00 0.00 0.00 77 1011.8
20260507094550 18 46 11.3 22.5 0.00 0.00 0.00 76 1011.7
20260507093056 18 68 9.7 22.5 0.00 0.00 0.00 76 1011.9
20260507091550 18 83 12.9 22.5 0.00 0.00 0.00 76 1012.0
20260507090058 18 61 11.3 19.3 0.00 0.00 0.00 74 1011.8
20260507084558 18 66 14.5 24.1 0.00 0.00 0.00 74 1011.9
20260507083045 18 11 11.3 22.5 0.00 0.00 0.00 74 1011.9
20260507081555 18 42 11.3 22.5 0.00 0.00 0.00 75 1011.8
20260507080053 18 4 8.0 16.1 0.00 0.00 0.00 75 1011.8
20260507074548 18 68 9.7 19.3 0.00 0.00 0.00 75 1011.8
20260507073049 18 51 6.4 19.3 0.00 0.00 0.00 75 1011.6
20260507071549 17 42 6.4 14.5 0.00 0.00 0.00 75 1011.4
20260507070106 17 23 11.3 16.1 0.00 0.00 0.00 76 1011.3
20260507064556 17 42 8.0 12.9 0.00 0.00 0.00 78 1011.0
20260507063057 16 17 8.0 14.5 0.00 0.00 0.00 80 1011.2
20260507061552 15 15 6.4 9.7 0.00 0.00 0.00 82 1011.0
20260507060058 15 32 4.8 8.0 0.00 0.00 0.00 82 1011.1
20260507054607 15 21 6.4 9.7 0.00 0.00 0.00 82 1011.1
20260507053103 15 8 6.4 9.7 0.00 0.00 0.00 82 1011.1
20260507051557 15 17 6.4 9.7 0.00 0.00 0.00 83 1010.8
20260507050054 14 39 4.8 9.7 0.00 0.00 0.00 84 1010.8
20260507044556 14 30 6.4 8.0 0.00 0.00 0.00 84 1010.9
20260507043057 14 18 6.4 8.0 0.00 0.00 0.00 84 1010.7
20260507041600 14 7 6.4 9.7 0.00 0.00 0.00 84 1010.6
20260507040054 14 23 6.4 9.7 0.00 0.00 0.00 83 1010.6
20260507034551 15 34 6.4 9.7 0.00 0.00 0.00 82 1010.4
20260507033053 15 36 4.8 12.9 0.00 0.00 0.00 82 1010.6
20260507031548 15 20 6.4 9.7 0.00 0.00 0.00 81 1010.6
20260507030052 15 36 6.4 9.7 0.00 0.00 0.00 81 1010.7
20260507024554 15 34 6.4 12.9 0.00 0.00 0.00 80 1010.8
20260507023055 16 47 8.0 12.9 0.00 0.00 0.00 79 1010.7
20260507021604 16 27 6.4 9.7 0.00 0.00 0.00 80 1010.9
20260507020106 15 37 6.4 9.7 0.00 0.00 0.00 81 1011.2
20260507014621 15 33 4.8 8.0 0.00 0.00 0.00 82 1011.2
20260507013056 16 26 6.4 12.9 0.00 0.00 0.00 81 1011.2
20260507011600 15 38 6.4 11.3 0.00 0.00 0.00 83 1011.2
20260507010055 15 39 8.0 12.9 0.00 0.00 0.00 83 1011.1
20260507004553 15 31 6.4 9.7 0.00 0.00 0.00 84 1011.3
20260507003054 15 23 6.4 9.7 0.00 0.00 0.00 85 1011.3
20260507001602 15 31 6.4 11.3 0.00 0.00 0.00 85 1011.4
20260507000122 15 37 8.0 9.7 0.00 0.00 0.00 85 1011.5
20260506234612 15 31 4.8 9.7 0.00 0.00 0.00 86 1011.7
20260506233053 16 33 4.8 11.3 0.00 0.00 0.00 86 1011.8
20260506231549 16 39 8.0 11.3 0.00 0.00 0.00 86 1011.7
20260506230100 16 37 4.8 8.0 0.00 0.00 0.00 86 1011.8
20260506224552 16 33 4.8 9.7 0.00 0.00 0.00 86 1011.8
20260506223051 16 29 4.8 8.0 0.00 0.00 0.00 86 1011.6
20260506221559 16 15 3.2 8.0 0.00 0.00 0.00 86 1011.7
20260506220052 17 32 3.2 8.0 0.00 0.00 0.00 84 1011.8
20260506214549 17 53 3.2 8.0 0.00 0.00 0.00 85 1011.9
20260506213056 17 87 4.8 11.3 0.00 0.00 0.00 84 1012.2
20260506211554 17 41 1.6 9.7 0.00 0.00 0.00 84 1012.4
20260506210051 17 92 3.2 8.0 0.00 0.00 0.00 84 1012.1
20260506204551 17 96 4.8 8.0 0.00 0.00 0.00 84 1012.0
20260506203054 17 54 4.8 9.7 0.00 0.00 0.00 84 1012.0
20260506201552 17 72 4.8 11.3 0.00 0.00 0.00 84 1011.8
20260506200047 17 66 6.4 12.9 0.00 0.00 0.00 84 1011.5
20260506194556 17 87 6.4 12.9 0.00 0.00 0.00 83 1011.3
20260506193052 17 98 4.8 12.9 0.00 0.00 0.00 83 1011.2
20260506191559 17 89 4.8 12.9 0.00 0.00 0.00 83 1011.0
20260506190052 17 103 8.0 12.9 0.00 0.00 0.00 83 1010.9
20260506184556 17 68 8.0 16.1 0.00 0.00 0.00 82 1010.7
20260506183101 18 79 11.3 20.9 0.00 0.00 0.00 82 1010.7
20260506181603 18 72 12.9 20.9 0.00 0.00 0.00 81 1010.6
20260506180054 18 100 8.0 22.5 0.00 0.00 0.00 81 1010.6
20260506174551 18 124 9.7 19.3 0.00 0.00 0.00 80 1010.6
20260506173119 18 70 9.7 22.5 0.00 0.00 0.00 80 1010.7
20260506171549 18 117 12.9 29.0 0.00 0.00 0.00 79 1010.8
20260506170104 18 85 16.1 24.1 0.00 0.00 0.00 77 1010.5
20260506164552 18 116 16.1 27.4 0.00 0.00 0.00 78 1010.4
20260506163059 18 76 12.9 29.0 0.00 0.00 0.00 77 1010.5
20260506161555 18 113 17.7 27.4 0.00 0.00 0.00 78 1010.3
20260506160059 19 76 14.5 25.7 0.00 0.00 0.00 76 1010.6
20260506154610 19 85 14.5 29.0 0.00 0.00 0.00 76 1010.1
20260506153059 19 121 16.1 32.2 0.00 0.00 0.00 77 1010.4
20260506151554 19 148 16.1 32.2 0.00 0.00 0.00 75 1010.4
20260506150051 19 95 16.1 32.2 0.00 0.00 0.00 75 1010.5
20260506144555 19 44 12.9 30.6 0.00 0.00 0.00 74 1010.7
20260506143051 20 70 17.7 25.7 0.00 0.00 0.00 73 1010.9